Regional Weather Roundup
Issued by NWS Charleston, SC

Current Version | Previous Version | Graphics & Text | Print | Product List | Glossary On
Versions: 1 2 3 4 5 6 7 8 9 10 11 12 13 14 15 16 17 18 19 20 21 22 23 24 25 26 27 28 29 30 31 32 33 34 35 36 37 38 39 40 41 42 43 44 45 46 47 48 49 50
000
ASUS42 KCHS 290325
RWRCHS

REGIONAL WEATHER ROUNDUP
NATIONAL WEATHER SERVICE CHARLESTON SC
1100 PM EDT THU AUG 28 2014

NOTE: "FAIR" INDICATES FEW OR NO CLOUDS BELOW 12,000 FEET WITH NO
SIGNIFICANT WEATHER AND/OR OBSTRUCTIONS TO VISIBILITY.

NOT ALL STATIONS ARE QUALITY CONTROLLED BY THE NATIONAL
WEATHER SERVICE. USE DATA WITH CAUTION...ESPECIALLY
DEWPOINT OBSERVATIONS.

SCZ027-030-031-034>040-042>050-290400-
...SOUTH CAROLINA...

CITY           SKY/WX    TMP DP  RH WIND       PRES   REMARKS
N CHARLESTON   CLEAR     75  67  76 S5        30.04R
WATERFRONT PRK   N/A     79 N/A N/A S6          N/A
FORT JOHNSON   NOT AVBL
MOUNT PLEASANT FAIR      72  68  88 CALM      30.04R
JOHNS ISLAND   CLEAR     72  68  88 CALM      30.04S
PINOPOLIS        N/A     79  66  65 S5        29.94S
MONCKS CORNER    N/A     72  70  94 CALM      30.03S FOG
SUMMERVILLE    NOT AVBL
BEAUFORT MCAS  CLEAR     77  71  82 CALM      30.04R
BEAUFORT ARPT  FAIR      73  72  94 CALM      30.03S
HILTON HEAD IS CLEAR     73  72  94 CALM      30.05S
GEORGETOWN     NOT AVBL
WALTERBORO     CLEAR     72  70  94 CALM      30.04S
ORANGEBURG     CLEAR     73  63  70 S5        30.04R
BARNWELL       FAIR      75  63  64 CALM      30.04S
AIKEN          FAIR      75  61  60 SE7       30.07R
MANNING        FAIR      79  70  73 S3        30.03R
KINGSTREE      NOT AVBL
COLUMBIA       CLEAR     78  59  51 S3        30.01R
SUMTER         CLEAR     76  64  66 S6        30.01R
FLORENCE       CLEAR     77  63  61 SW6       30.02R
MYRTLE BEACH   CLEAR     79  66  65 SW5       30.03R
N MYRTLE BEACH CLEAR     80  68  66 SW9       30.02R

$$

GAZ063-065-086>088-099>101-113>116-118-119-134-136>141-150-290400-
...GEORGIA...

CITY           SKY/WX    TMP DP  RH WIND       PRES   REMARKS
SAVANNAH ARPT  CLEAR     76  69  79 CALM      30.04R
HUNTER AAF     CLEAR     75  71  87 E2        30.02R
FORT STEWART   CLEAR     73  68  84 CALM      30.02R
STATESBORO     NOT AVBL
SYLVANIA       CLEAR     73  69  86 SW3       30.04S
CLAXTON        NOT AVBL
THOMSON        CLEAR     71  67  87 CALM      30.07R
AUGUSTA-BUSH   CLEAR     69  65  86 SE5       30.02R
AUGUSTA-DANIEL CLEAR     81  60  48 SE7       30.03R
SWAINSBORO     FAIR      79  68  69 S5        30.04R
VIDALIA          N/A     77  70  78 S5        30.04R
ALMA           CLEAR     75  67  76 E5        30.02R
WAYCROSS       CLEAR     80  72  77 SE6       30.04R
JESUP            N/A     73  72  94 CALM      30.04R
BRUNSWICK      CLEAR     72  70  94 CALM      30.04R
SAINT SIMONS   CLEAR     78  71  79 SE3       30.03R

$$

SCZ027-028-034-036>038-045-046-048>050-GAZ119-141-290400-
...LAKE AND SUPPLEMENTAL COASTAL OBSERVATIONS...

STATION/POSITION TIME  TEMP    WIND        PRES    WAVE   SWELL
                       AIR SEA DIR/SP/G            HT/PER HT/PER/DIR
                 (UTC) (F)     (DEG/KT/KT) (MB)    (FT/S) (FT/S/D)
UPR LAKE MARION  NOT AVBL
WINYAH BAY       0300   76     250/  2     1016.0S
LAKE MURRAY      0300   84     180/  8/  9 1015.6S
ACE BASIN NERRS  0300   74        CALM     1017.0S
FORT PULASKI     0300   80     140/  5/  7 1017.3R
SAPELO ISLAND    0300   76     130/  3     1017.0S

$$

ANZ835-935-AMZ111-154-330-350-352-354-374-450-454-472-290400-
...C-MAN AND BUOY OBSERVATIONS...

STATION/POSITION TIME  TEMP    WIND        PRES    WAVE   SWELL
                       AIR SEA DIR/SP/G            HT/PER HT/PER/DIR
                 (UTC) (F)     (DEG/KT/KT) (MB)    (FT/S) (FT/S/D)
FOLLY BEACH CMAN 0300   80     190/  9/ 10 1017.6R
BUOY 41004       0300   81 83  170/  6/  8 1016.8R   4/10   3/10
BUOY 41008       0200   82 84  120/  8/ 12 1016.4R   3/ 9   3/ 90/ 9
5E ST. MARYS GA  0300      84                N/A     3/ 9   2/ 90/11
FRYING PAN BUOY  NOT AVBL
BUOY 41025       0300   81     240/  6/  6 1016.5R   5/ 9   5/130/ 9
CAPE LOOKOUT NC  0300   80     230/  6/  8 1016.4R
BUOY 41002       0151   81 82  230/  4/  6 1018.6    5/ 7   5/ 30/ 7
BUOY 41010       0300   83 84  100/  6/  8 1017.7R   4/ 9   3/ 30/ 9
BUOY 41012       NOT AVBL
ST AUGUSTINE FL  0300   81     140/ 12/ 13 1018.0R
CAPERS NEARSHORE 0200   81     210/ 10/ 12   N/A
FRIPP NEARSHORE  NOT AVBL


$$


USA.gov is the U.S. government's official web portal to all federal, state and local government web resources and services.